• In Kazakhstan
  • List of Countries
  • For 7 days
  • Water Temperature
  • Satellite Maps
  • Weather Map
  • News
  • Weather Widgets
  • user-avatar
    Login

    Hourly Weather San Juan

    Today, 18 November, Sunday

    Time Temperature Precipitation Wind Pressure Humidity
    00:00 +19°C° 0 mm 4 mps 708 mmHg 40%
    01:00 +19°C° 0 mm 3 mps 708 mmHg 42%
    02:00 +18°C° 0 mm 3 mps 708 mmHg 42%
    03:00 +18°C° 0 mm 3 mps 708 mmHg 42%
    04:00 +17°C° 0 mm 2 mps 708 mmHg 43%
    05:00 +18°C° 0 mm 2 mps 708 mmHg 40%
    06:00 +19°C° 0 mm 2 mps 708 mmHg 36%
    07:00 +20°C° 0 mm 2 mps 708 mmHg 33%
    08:00 +21°C° 0 mm 2 mps 708 mmHg 31%
    09:00 +24°C° 0 mm 2 mps 708 mmHg 29%
    10:00 +25°C° 0 mm 2 mps 708 mmHg 26%
    11:00 +26°C° 0 mm 3 mps 707 mmHg 25%
    12:00 +28°C° 0 mm 3 mps 706 mmHg 23%
    13:00 +29°C° 0 mm 3 mps 705 mmHg 21%
    14:00 +29°C° 0 mm 3 mps 705 mmHg 20%
    15:00 +30°C° 0 mm 3 mps 705 mmHg 20%
    16:00 +30°C° 0 mm 3 mps 704 mmHg 19%
    17:00 +29°C° 0 mm 3 mps 705 mmHg 21%
    18:00 +28°C° 0 mm 3 mps 705 mmHg 23%
    19:00 +27°C° 0 mm 2 mps 705 mmHg 24%
    20:00 +27°C° 0 mm 3 mps 706 mmHg 26%
    21:00 +26°C° 0 mm 3 mps 706 mmHg 28%
    22:00 +25°C° 0 mm 3 mps 706 mmHg 30%
    23:00 +25°C° 0 mm 3 mps 706 mmHg 31%

    Tomorrow, 19 November, Monday

    Time Temperature Precipitation Wind Pressure Humidity
    00:00 +24°C° 0 mm 3 mps 705 mmHg 33%
    01:00 +24°C° 0 mm 3 mps 705 mmHg 34%
    02:00 +22°C° 0 mm 3 mps 705 mmHg 35%
    03:00 +22°C° 0 mm 3 mps 705 mmHg 35%
    04:00 +21°C° 0 mm 3 mps 704 mmHg 36%
    05:00 +24°C° 0 mm 2 mps 705 mmHg 33%
    06:00 +25°C° 0 mm 2 mps 705 mmHg 30%
    07:00 +27°C° 0 mm 2 mps 705 mmHg 27%
    08:00 +28°C° 0 mm 2 mps 705 mmHg 24%
    09:00 +30°C° 0 mm 3 mps 705 mmHg 21%
    10:00 +31°C° 0 mm 3 mps 705 mmHg 19%
    11:00 +33°C° 0 mm 3 mps 704 mmHg 17%
    12:00 +35°C° 0 mm 3 mps 703 mmHg 15%
    13:00 +36°C° 0 mm 3 mps 703 mmHg 14%
    14:00 +36°C° 0 mm 3 mps 702 mmHg 13%
    15:00 +36°C° 0 mm 3 mps 702 mmHg 13%
    16:00 +36°C° 0 mm 3 mps 702 mmHg 13%
    17:00 +35°C° 0 mm 3 mps 702 mmHg 15%
    18:00 +34°C° 0 mm 3 mps 703 mmHg 17%
    19:00 +31°C° 0 mm 3 mps 704 mmHg 19%
    20:00 +30°C° 0 mm 3 mps 704 mmHg 22%
    21:00 +30°C° 0 mm 3 mps 705 mmHg 25%
    22:00 +29°C° 0 mm 3 mps 705 mmHg 29%
    23:00 +28°C° 0 mm 3 mps 705 mmHg 32%

    Day after tomorrow, 20 November, Tuesday

    Time Temperature Precipitation Wind Pressure Humidity
    00:00 +27°C° 0 mm 3 mps 705 mmHg 35%
    01:00 +27°C° 0 mm 3 mps 704 mmHg 39%
    02:00 +26°C° 0 mm 2 mps 704 mmHg 41%
    03:00 +26°C° 0 mm 2 mps 704 mmHg 44%
    04:00 +25°C° 0 mm 2 mps 704 mmHg 46%
    05:00 +26°C° 0 mm 2 mps 705 mmHg 42%
    06:00 +28°C° 0 mm 2 mps 705 mmHg 39%
    07:00 +29°C° 0 mm 2 mps 706 mmHg 35%
    08:00 +30°C° 0 mm 2 mps 705 mmHg 30%
    09:00 +32°C° 0 mm 2 mps 705 mmHg 25%
    10:00 +34°C° 0 mm 2 mps 705 mmHg 20%
    11:00 +35°C° 0 mm 2 mps 705 mmHg 18%
    12:00 +36°C° 0 mm 3 mps 704 mmHg 16%
    13:00 +37°C° 0 mm 3 mps 704 mmHg 14%
    14:00 +37°C° 0 mm 3 mps 703 mmHg 14%
    15:00 +38°C° 0 mm 3 mps 702 mmHg 13%
    16:00 +38°C° 0 mm 3 mps 702 mmHg 13%
    17:00 +37°C° 0 mm 2 mps 702 mmHg 15%
    18:00 +36°C° 0 mm 2 mps 703 mmHg 16%
    19:00 +34°C° 0 mm 2 mps 703 mmHg 18%
    20:00 +34°C° 0 mm 2 mps 704 mmHg 20%
    21:00 +32°C° 0 mm 2 mps 704 mmHg 23%
    22:00 +31°C° 0 mm 3 mps 704 mmHg 25%
    23:00 +30°C° 0 mm 2 mps 704 mmHg 28%

    21 November, Wednesday

    Time Temperature Precipitation Wind Pressure Humidity
    00:00 +30°C° 0 mm 2 mps 704 mmHg 30%
    01:00 +29°C° 0 mm 2 mps 703 mmHg 33%
    02:00 +29°C° 0 mm 2 mps 703 mmHg 33%
    03:00 +28°C° 0 mm 2 mps 703 mmHg 33%
    04:00 +28°C° 0 mm 2 mps 703 mmHg 33%
    05:00 +29°C° 0 mm 2 mps 704 mmHg 30%
    06:00 +31°C° 0 mm 2 mps 704 mmHg 26%
    07:00 +32°C° 0 mm 2 mps 704 mmHg 22%
    08:00 +35°C° 0 mm 2 mps 704 mmHg 20%
    09:00 +36°C° 0 mm 2 mps 704 mmHg 18%
    10:00 +37°C° 0 mm 3 mps 703 mmHg 16%
    11:00 +38°C° 0 mm 3 mps 702 mmHg 14%
    12:00 +40°C° 0 mm 3 mps 702 mmHg 12%
    13:00 +42°C° 0 mm 4 mps 701 mmHg 10%
    14:00 +42°C° 0 mm 4 mps 700 mmHg 10%
    15:00 +42°C° 0 mm 3 mps 700 mmHg 9%
    16:00 +42°C° 0 mm 3 mps 700 mmHg 9%
    17:00 +40°C° 0 mm 3 mps 700 mmHg 10%
    18:00 +39°C° 0 mm 3 mps 701 mmHg 12%
    19:00 +37°C° 0 mm 3 mps 701 mmHg 14%
    20:00 +36°C° 0 mm 3 mps 701 mmHg 16%
    21:00 +35°C° 0 mm 3 mps 702 mmHg 18%
    22:00 +34°C° 0 mm 2 mps 702 mmHg 20%
    23:00 +34°C° 0 mm 2 mps 702 mmHg 22%

    22 November, Thursday

    Time Temperature Precipitation Wind Pressure Humidity
    00:00 +32°C° 0 mm 2 mps 702 mmHg 23%
    01:00 +31°C° 0 mm 2 mps 702 mmHg 24%
    02:00 +30°C° 0 mm 5 mps 703 mmHg 30%
    03:00 +29°C° 0 mm 8 mps 703 mmHg 35%
    04:00 +28°C° 0 mm 11 mps 704 mmHg 40%
    05:00 +26°C° 0.2 mm 11 mps 705 mmHg 45%
    06:00 +24°C° 0.2 mm 11 mps 706 mmHg 50%
    07:00 +22°C° 0.2 mm 11 mps 708 mmHg 55%
    08:00 +22°C° 0 mm 10 mps 708 mmHg 49%
    09:00 +22°C° 0 mm 9 mps 708 mmHg 43%
    10:00 +23°C° 0 mm 8 mps 708 mmHg 37%
    11:00 +23°C° 0 mm 8 mps 708 mmHg 33%
    12:00 +24°C° 0 mm 7 mps 707 mmHg 28%
    13:00 +26°C° 0 mm 7 mps 707 mmHg 24%
    14:00 +26°C° 0 mm 6 mps 706 mmHg 23%
    15:00 +26°C° 0 mm 6 mps 706 mmHg 23%
    16:00 +26°C° 0 mm 5 mps 705 mmHg 23%
    17:00 +25°C° 0 mm 5 mps 706 mmHg 25%
    18:00 +23°C° 0 mm 4 mps 706 mmHg 26%
    19:00 +22°C° 0 mm 3 mps 706 mmHg 28%
    20:00 +22°C° 0 mm 3 mps 706 mmHg 29%
    21:00 +23°C° 0 mm 2 mps 707 mmHg 30%
    22:00 +21°C° 0 mm 2 mps 707 mmHg 32%
    23:00 +21°C° 0 mm 2 mps 706 mmHg 33%

    23 November, Friday

    Time Temperature Precipitation Wind Pressure Humidity
    00:00 +20°C° 0 mm 2 mps 706 mmHg 35%
    01:00 +21°C° 0 mm 1 mps 706 mmHg 37%
    02:00 +20°C° 0 mm 2 mps 705 mmHg 39%
    03:00 +19°C° 0 mm 2 mps 705 mmHg 42%
    04:00 +19°C° 0 mm 2 mps 705 mmHg 44%
    05:00 +20°C° 0 mm 2 mps 706 mmHg 42%
    06:00 +21°C° 0 mm 2 mps 706 mmHg 40%
    07:00 +23°C° 0 mm 2 mps 706 mmHg 38%
    08:00 +24°C° 0 mm 2 mps 706 mmHg 35%
    09:00 +26°C° 0 mm 2 mps 705 mmHg 32%
    10:00 +27°C° 0 mm 2 mps 705 mmHg 28%
    11:00 +29°C° 0 mm 2 mps 704 mmHg 26%
    12:00 +30°C° 0 mm 2 mps 704 mmHg 25%
    13:00 +32°C° 0 mm 2 mps 703 mmHg 23%
    14:00 +33°C° 0 mm 3 mps 703 mmHg 23%
    15:00 +33°C° 0 mm 3 mps 702 mmHg 23%
    16:00 +34°C° 0 mm 3 mps 702 mmHg 24%
    17:00 +33°C° 0 mm 3 mps 703 mmHg 26%
    18:00 +31°C° 0 mm 3 mps 703 mmHg 28%
    19:00 +30°C° 0 mm 3 mps 704 mmHg 30%
    20:00 +29°C° 0 mm 3 mps 704 mmHg 32%
    21:00 +29°C° 0 mm 3 mps 704 mmHg 33%
    22:00 +28°C° 0 mm 2 mps 705 mmHg 35%
    23:00 +27°C° 0 mm 3 mps 705 mmHg 40%
    Show more